Hourly Data Report for April 05, 2018

KUGAARUK CLIMATE
NUNAVUT
Current Station Operator: ECCC - MSC

68°32'15.060" N
89°47'47.020" W
15.80 m
2303094
71407
NBB

Download Data

Hourly Data (April 2018)
Hourly Data Report for April 5, 2018
TIME
LST
Temp Definition
°C
Dew Point Definition
°C
Rel Hum Definition
%
Precip. Amount Definition
mm

Wind Dir Definition
10's deg

Wind Spd Definition
km/h
Visibility Definition
km
Stn Press Definition
kPa
Hmdx Definition


Wind Chill Definition


Weather Definition


00:00 -17.2 -21.0 72 0.0 22 7   102.54   -22 LegendNANA
01:00 -18.1 -22.1 71 0.0 13 5   102.51   -22 LegendNANA
02:00 -18.2 -21.9 72 0.0 18 3   102.51   -21 LegendNANA
03:00 -19.9 -23.2 75 0.0 1 8   102.50   -26 LegendNANA
04:00 -20.7 -23.8 76 0.0 36 17   102.47   -31 LegendNANA
05:00 -21.6 -25.6 70 0.2 17 4   102.44   -25 LegendNANA
06:00 -21.0 -24.8 71 0.0 35 21   102.43   -32 LegendNANA
07:00 -21.2 -25.3 70 0.0 36 23   102.37   -33 LegendNANA
08:00 -20.7 -26.1 62 0.0 34 9   102.37   -28 LegendNANA
09:00 -21.3 -26.6 62 0.0 1 15   102.37   -31 LegendNANA
10:00 -21.4 -26.8 61 0.0 33 14   102.33   -30 LegendNANA
11:00 -21.6 -26.9 62 0.0 34 17   102.32   -32 LegendNANA
12:00 -21.5 -27.1 60 0.0 34 16   102.30   -31 LegendNANA
13:00 -21.5 -27.0 61 0.0 34 16   102.28   -31 LegendNANA
14:00 -21.4 -26.6 63 0.0 33 17   102.27   -31 LegendNANA
15:00 -21.7 -26.9 63 0.0 34 19   102.25   -32 LegendNANA
16:00 -22.0 -26.8 65 0.0 34 12   102.21   -30 LegendNANA
17:00 -22.1 -26.1 70 0.0 32 11   102.18   -30 LegendNANA
18:00 -22.5 -26.0 73 0.0 26 6   102.17   -28 LegendNANA
19:00 -22.9 -26.2 74 0.0 29 6   102.13   -28 LegendNANA
20:00 -23.4 -26.7 74 0.0 28 5   102.10   -28 LegendNANA
21:00 -23.9 -27.0 76 0.0 30 6   102.04   -30 LegendNANA
22:00 -24.6 -27.8 75 0.0 25 7   102.01   -31 LegendNANA
23:00 -24.9 -28.1 75 0.0 25 10   101.99   -33 LegendNANA

Notes on Data Quality.

Legend

  • E = Estimated
  • M = Missing
  • NA = Not Available*
  • [empty] = Indicates an unobserved value
Date modified: